Вернуться в каталог

ROCK

АктивенНаукаSSO
NORAD 60474·PAYLOAD·🇺🇸 United States

Запущен Aug 16, 2024 с Vandenberg Space Force Base

Loading…

Ближайшие Пролёты (ближайшие 24 часа)

TLE

СвежийSource: Space-Track

Эпоха: Sep 14, 2026, 12:57 UTC

1 60474U 24149G   26257.53996580  .00012770  00000-0  30124-3 0  9998
2 60474  97.3724 341.7451 0000231 325.6678  34.4554 15.42025566116024

Отслеживайте ROCK в реальном времени с AllMySat

Download on the App Store